Printer-friendly version

IAU Minor Planet Center

Minor Planet Center

MPEC 2001-D06: 2000 CN105, 2000 FA8, 2000 KK4

The following Minor Planet Electronic Circular may be linked-to from your own Web pages, but must not otherwise be redistributed electronically.


Read MPEC 2001-D05 Read MPEC 2001-D07


M.P.E.C. 2001-D06                                Issued 2001 Feb. 17, 20:03 UT

     The Minor Planet Electronic Circulars contain information on unusual
         minor planets and routine data on comets.  They are published
   on behalf of Commission 20 of the International Astronomical Union by the
          Minor Planet Center, Smithsonian Astrophysical Observatory,
                          Cambridge, MA 02138, U.S.A.

             Prepared using the Tamkin Foundation Computer Network

                              MPC@CFA.HARVARD.EDU
          URL http://cfa-www.harvard.edu/iau/mpc.html  ISSN 1523-6714

                        2000 CN105, 2000 FA8, 2000 KK4

                 Revision to MPEC 2000-F02, 2000-F46, 2000-K31

Observations:
     K00CA5N  C2001 02 15.99895 10 13 51.77 +14 09 08.8          21.6 R      950
     K00CA5N  C2001 02 16.03978 10 13 51.59 +14 09 09.8          21.7 R      950
     K00CA5N  C2001 02 16.96721 10 13 47.50 +14 09 32.4          21.8 R      950
     K00F08A  C2001 02 16.14256 12 23 47.62 -02 57 09.1                      950
     K00F08A  C2001 02 16.18052 12 23 47.51 -02 57 08.2                      950
     K00F08A  C2001 02 17.10530 12 23 44.49 -02 56 48.8          23.9 R      950
     K00K04K  C2001 02 16.21883 16 18 37.58 -02 05 51.9                      950
     K00K04K  C2001 02 16.25342 16 18 37.64 -02 05 51.3          22.3 R      950
     K00K04K  C2001 02 17.22753 16 18 39.19 -02 05 29.9                      950

Observer details:
950 La Palma.  Observers K. Aksnes, T. Grav, M. Holman.  Measurers M. Holman,
    T. Grav.  2.56-m Nordic Optical Telescope + CCD.

Orbital elements:
2000 CN105
Eccentricity assumed
Epoch 2001 Apr. 1.0 TT = JDT 2452000.5                  Marsden
M 153.94122              (2000.0)            P               Q
n   0.00335121     Peri.  325.72454     +0.99498872     +0.09576769
a  44.2250508      Node    28.82074     -0.07305424     +0.89254931
e   0.0383346      Incl.    3.41791     -0.06826810     +0.44066345
P 294              H    5.6           G   0.15
Residuals in seconds of arc
K0026  695  0.2+  0.0     K002R  695  0.1+  0.1-    K012F  950  0.0   0.0
K0026  695  0.3+  0.1+    K0031  695  0.7-  0.1-    K012G  950  0.0   0.0
K002R  695  0.2-  0.1+    K0031  695  0.2-  0.1-    K012G  950  0.0   0.0
K002R  695  0.2-  0.2+    K004A  695  0.2+  0.0
K002R  695  0.2+  0.1-    K004A  695  0.2+  0.0

2000 FA8
Eccentricity assumed
Epoch 2001 Apr. 1.0 TT = JDT 2452000.5                  Marsden
M 301.94954              (2000.0)            P               Q
n   0.00312477     Peri.   57.79019     +0.00506001     +0.99996166
a  46.3365701      Node   212.50204     -0.92188898     +0.00189561
e   0.2368034      Incl.    0.76215     -0.38742110     +0.00854953
P 315              H    7.5           G   0.15
Residuals in seconds of arc
K003R  568  0.4+  0.4-    K003U  568  0.2-  0.5+    K006Q  950  0.2+  0.2-
K003R  568  0.3+  0.1-    K003U  568  0.2-  0.4+    K012G  950  0.1-  0.2-
K003T  568  0.2-  0.2-    K006N  950  0.1+  0.9+    K012G  950  0.1+  0.1-
K003T  568  0.3-  0.4-    K006O  950  0.1+  0.1+    K012H  950  0.1-  0.0
K003T  568  0.1-  0.5-    K006P  950  0.1+  0.1+

2000 KK4
Epoch 2001 Apr. 1.0 TT = JDT 2452000.5                  Marsden
M 112.91138              (2000.0)            P               Q
n   0.00367864     Peri.  329.63693     -0.44844641     -0.87483232
a  41.5602011      Node   146.01107     +0.87174079     -0.47335426
e   0.1324609      Incl.   19.13036     +0.19739253     +0.10297654
P 268              H    6.1           G   0.15           U   7
Residuals in seconds of arc
K005Q  695  0.1-  0.0     K005R  695  0.3-  0.4+    K007O  809  0.3-  0.1-
K005Q  695  0.0   0.0     K006O  950  0.2+  0.3-    K007O  809  0.3-  0.0
K005Q  695  0.1+  0.1-    K006O  950  0.2+  0.4-    K012G  950  0.1-  0.1+
K005R  695  0.2-  0.5+    K006P  950  0.2+  0.5-    K012G  950  0.0   0.0
K005R  695  0.3-  0.5+    K007O  809  0.3-  0.0     K012H  950  0.1-  0.1+

Ephemerides:
2000 CN105               a,e,i = 44.23, 0.04, 3                  q = 42.530
Date    TT    R. A. (2000) Decl.     Delta      r     Elong.  Phase     V
2001 02 10    10 14.30   +14 06.7   44.785   45.758   170.4     0.2    22.2
2001 02 20    10 13.57   +14 10.8   44.771   45.758   176.8     0.1    22.2
2001 03 02    10 12.84   +14 14.7   44.788   45.759   168.2     0.3    22.2
2001 03 12    10 12.13   +14 18.3   44.835   45.759   158.2     0.5    22.3
2001 03 22    10 11.48   +14 21.5   44.910   45.760   148.1     0.7    22.3
2001 04 01    10 10.90   +14 24.2   45.011   45.760   138.1     0.8    22.3
2001 04 11    10 10.43   +14 26.3   45.134   45.760   128.2     1.0    22.3
2001 04 21    10 10.06   +14 27.6   45.275   45.761   118.4     1.1    22.3
2001 05 01    10 09.82   +14 28.2   45.430   45.761   108.6     1.2    22.4
2001 05 11    10 09.72   +14 28.0   45.595   45.762    98.9     1.2    22.4
2001 05 21    10 09.75   +14 27.1   45.764   45.762    89.3     1.3    22.4
2001 05 31    10 09.93   +14 25.4   45.932   45.762    79.7     1.2    22.4
2001 06 10    10 10.24   +14 23.0   46.096   45.763    70.3     1.2    22.4
2001 06 20    10 10.67   +14 19.9   46.250   45.763    60.8     1.1    22.4
2001 06 30    10 11.23   +14 16.2   46.390   45.764    51.5     1.0    22.4
2001 07 10    10 11.88   +14 12.1   46.513   45.764    42.1     0.9    22.4
2001 07 20    10 12.63   +14 07.5   46.615   45.764    32.8     0.7    22.4

2000 FA8                 a,e,i = 46.34, 0.24, 1                  q = 35.364
Date    TT    R. A. (2000) Decl.     Delta      r     Elong.  Phase     V
2001 02 10    12 24.10   -02 59.1   42.073   42.771   134.6     0.9    23.9
2001 02 20    12 23.58   -02 55.8   41.953   42.765   144.8     0.8    23.9
2001 03 02    12 22.96   -02 51.8   41.858   42.759   155.1     0.6    23.9
2001 03 12    12 22.28   -02 47.4   41.791   42.753   165.2     0.3    23.8
2001 03 22    12 21.56   -02 42.7   41.753   42.747   175.4     0.1    23.8
2001 04 01    12 20.83   -02 38.0   41.746   42.741   174.5     0.1    23.8
2001 04 11    12 20.11   -02 33.3   41.768   42.735   164.5     0.4    23.8
2001 04 21    12 19.43   -02 28.8   41.819   42.728   154.5     0.6    23.9
2001 05 01    12 18.82   -02 24.8   41.897   42.722   144.6     0.8    23.9
2001 05 11    12 18.29   -02 21.3   41.999   42.716   134.8     1.0    23.9
2001 05 21    12 17.87   -02 18.5   42.121   42.710   125.0     1.1    23.9
2001 05 31    12 17.58   -02 16.5   42.260   42.704   115.3     1.2    24.0
2001 06 10    12 17.41   -02 15.3   42.412   42.698   105.7     1.3    24.0
2001 06 20    12 17.38   -02 15.0   42.571   42.692    96.1     1.4    24.0
2001 06 30    12 17.49   -02 15.6   42.733   42.686    86.6     1.4    24.0
2001 07 10    12 17.74   -02 17.1   42.894   42.679    77.2     1.3    24.0
2001 07 20    12 18.13   -02 19.5   43.048   42.673    67.7     1.3    24.0
2001 07 30    12 18.64   -02 22.7   43.192   42.667    58.3     1.2    24.0
2001 08 09    12 19.26   -02 26.6   43.320   42.661    48.9     1.0    24.0
2001 08 19    12 19.99   -02 31.3   43.431   42.655    39.5     0.9    24.0
2001 08 29    12 20.80   -02 36.4   43.520   42.649    30.1     0.7    24.0

2000 KK4                 a,e,i = 41.56, 0.13, 19                 q = 36.055
Date    TT    R. A. (2000) Decl.     Delta      r     Elong.  Phase     V
2001 02 10    16 18.43   -02 08.0   44.438   44.258    78.9     1.3    22.7
2001 02 20    16 18.72   -02 04.5   44.278   44.261    88.4     1.3    22.7
2001 03 02    16 18.86   -02 00.4   44.117   44.264    97.9     1.3    22.7
2001 03 12    16 18.84   -01 56.1   43.961   44.267   107.3     1.2    22.7
2001 03 22    16 18.68   -01 51.5   43.814   44.270   116.6     1.2    22.7
2001 04 01    16 18.38   -01 46.9   43.680   44.273   125.8     1.0    22.7
2001 04 11    16 17.95   -01 42.5   43.564   44.275   134.8     0.9    22.7
2001 04 21    16 17.40   -01 38.3   43.468   44.278   143.3     0.8    22.7
2001 05 01    16 16.77   -01 34.5   43.397   44.281   151.1     0.6    22.6
2001 05 11    16 16.07   -01 31.2   43.351   44.284   157.3     0.5    22.6
2001 05 21    16 15.33   -01 28.5   43.332   44.287   160.4     0.4    22.6
2001 05 31    16 14.58   -01 26.6   43.341   44.290   159.1     0.5    22.6
2001 06 10    16 13.84   -01 25.5   43.377   44.293   154.1     0.6    22.6
2001 06 20    16 13.13   -01 25.2   43.440   44.296   147.0     0.7    22.6
2001 06 30    16 12.49   -01 25.8   43.527   44.299   139.0     0.9    22.7
2001 07 10    16 11.92   -01 27.2   43.635   44.302   130.4     1.0    22.7
2001 07 20    16 11.47   -01 29.5   43.763   44.304   121.7     1.1    22.7
2001 07 30    16 11.13   -01 32.4   43.905   44.307   112.7     1.2    22.7
2001 08 09    16 10.92   -01 36.1   44.059   44.310   103.7     1.3    22.7
2001 08 19    16 10.85   -01 40.3   44.220   44.313    94.7     1.3    22.7
2001 08 29    16 10.93   -01 45.0   44.383   44.316    85.6     1.3    22.8
2001 09 08    16 11.16   -01 50.0   44.543   44.319    76.5     1.3    22.8
2001 09 18    16 11.53   -01 55.2   44.698   44.322    67.4     1.2    22.8
2001 09 28    16 12.03   -02 00.5   44.841   44.325    58.5     1.1    22.8
2001 10 08    16 12.66   -02 05.7   44.969   44.328    49.6     1.0    22.8
2001 10 18    16 13.40   -02 10.7   45.079   44.330    40.9     0.8    22.7
2001 10 28    16 14.23   -02 15.4   45.166   44.333    32.7     0.7    22.7

Brian G. Marsden             (C) Copyright 2001 MPC           M.P.E.C. 2001-D06

Read MPEC 2001-D05 Read MPEC 2001-D07


Our Web policy. Index to the CBAT/MPC/ICQ pages.


Valid HTML 4.01!